カタログに戻る

GALILEO 20

2C6

運用中ナビゲーションMEO
NORAD 43056·PAYLOAD·🇪🇺 EU

打ち上げ Dec 12, 2017 から Guiana Space Centre

Loading…

次のパス (今後24時間)

TLE

最新Source: CelesTrak SupGP

元期: Sep 14, 2026, 23:59 UTC

1 43056C 17079B   26257.99979167  .00000000  00000+0  00000+0 0  2576
2 43056  55.0534 219.0364 0004588 290.4146  36.4927  1.70474152    11

AllMySatでGALILEO 20をリアルタイム追跡

Download on the App Store